OK1HRA-8 Weather Reports


time (UTC)temp
C
wind
direction
speed
KPH
gust
KPH
rain 1hr
cm
rain 24hr
cm
rain mn
cm
humidity
%
barometer
mb
20260904013603 15 247 14.5 20.9 0.00 0.00 0.00 8 1006.1
20260904013048 15 270 14.5 22.5 0.00 0.00 0.00 9 1005.3
20260904012527 15 270 12.9 16.1 0.00 0.00 0.00 8 1005.4
20260904012503 15 225 16.1 25.7 0.00 0.00 0.00 8 1006.0
20260904011948 15 225 16.1 25.7 0.00 0.00 0.00 9 1005.1
20260904011433 15 225 17.7 25.7 0.00 0.00 0.00 9 1006.5
20260904010912 15 225 12.9 14.5 0.00 0.00 0.00 8 1005.8
20260904010848 15 225 14.5 22.5 0.00 0.00 0.00 8 1006.3
20260904010333 15 270 17.7 25.7 0.00 0.00 0.00 9 1006.1
20260904005818 15 225 16.1 24.1 0.00 0.00 0.00 9 1006.4
20260904005256 15 247 17.7 25.7 0.00 0.00 0.00 9 1006.5
20260904005238 15 225 16.1 25.7 0.00 0.00 0.00 9 1005.8
20260904004717 15 225 16.1 24.1 0.00 0.00 0.00 9 1005.7
20260904004202 15 247 17.7 29.0 0.00 0.00 0.00 9 1006.0
20260904003641 15 247 16.1 20.9 0.00 0.00 0.00 9 1006.0
20260904003624 15 270 16.1 22.5 0.00 0.00 0.00 9 1006.2
20260904003104 15 247 17.7 25.7 0.00 0.00 0.00 9 1005.3
20260904002548 15 225 19.3 27.4 0.00 0.00 0.00 9 1006.1
20260904002033 15 247 22.5 33.8 0.00 0.00 0.00 9 1006.1
20260904001512 15 225 17.7 22.5 0.00 0.00 0.00 9 1006.6
20260904001457 15 225 19.3 29.0 0.00 0.00 0.00 9 1005.9
20260904000935 15 225 19.3 29.0 0.00 0.00 0.00 9 1006.4
20260904000420 15 247 17.7 29.0 0.00 0.00 0.00 9 1007.0
20260903235905 15 247 19.3 25.7 0.00 0.00 0.03 9 1006.6
20260903235344 15 247 12.9 16.1 0.00 0.00 0.03 9 1007.0
20260903235329 15 270 19.3 29.0 0.00 0.00 0.03 9 1006.8
20260903234814 15 225 17.7 27.4 0.00 0.00 0.03 9 1006.1
20260903234253 15 247 19.3 30.6 0.00 0.00 0.03 9 1007.0
20260903233738 15 225 19.3 29.0 0.00 0.00 0.03 9 1006.7
20260903233216 15 247 11.3 17.7 0.00 0.00 0.03 9 1007.2
20260903233201 15 270 16.1 27.4 0.00 0.00 0.03 9 1006.8
20260903232640 15 270 17.7 27.4 0.00 0.00 0.03 9 1006.4
20260903232125 15 270 17.7 29.0 0.00 0.00 0.03 9 1006.8
20260903231610 15 247 16.1 24.1 0.00 0.00 0.03 9 1007.3
20260903231049 15 247 9.7 14.5 0.00 0.00 0.03 9 1007.5
20260903231033 15 247 16.1 25.7 0.00 0.00 0.03 9 1007.6
20260903230512 15 247 14.5 22.5 0.00 0.00 0.03 9 1007.6
20260903225957 15 247 14.5 24.1 0.00 0.00 0.03 9 1007.0
20260903225441 15 247 17.7 25.7 0.00 0.00 0.03 9 1007.4
20260903224920 15 247 9.7 14.5 0.00 0.00 0.03 9 1007.8
20260903224903 15 247 17.7 25.7 0.00 0.00 0.03 9 1007.1
20260903224348 15 247 17.7 25.7 0.00 0.00 0.03 9 1007.8
20260903223827 15 247 16.1 24.1 0.00 0.00 0.03 9 1007.4
20260903223306 15 270 9.7 11.3 0.00 0.00 0.03 9 1007.9
20260903223249 15 247 19.3 32.2 0.00 0.00 0.03 9 1007.6
20260903222734 15 270 19.3 27.4 0.00 0.00 0.03 9 1008.0
20260903222213 15 225 16.1 29.0 0.00 0.00 0.03 9 1007.1
20260903221658 15 247 17.7 27.4 0.00 0.00 0.03 9 1007.9
20260903221137 15 247 12.9 19.3 0.00 0.00 0.03 9 1006.8
20260903221121 15 270 19.3 30.6 0.00 0.00 0.03 9 1007.1
20260903220600 15 247 19.3 32.2 0.00 0.00 0.03 9 1008.0
20260903220045 15 225 19.3 30.6 0.00 0.00 0.03 9 1008.0
20260903215530 15 247 19.3 33.8 0.00 0.00 0.03 9 1007.3
20260903215009 15 225 14.5 20.9 0.00 0.00 0.03 9 1007.6
20260903214946 15 225 17.7 27.4 0.00 0.00 0.03 9 1008.2
20260903214431 15 247 19.3 29.0 0.00 0.00 0.03 9 1007.5
20260903213916 15 247 17.7 27.4 0.00 0.00 0.03 9 1007.7
20260903213355 15 247 9.7 14.5 0.00 0.00 0.03 8 1008.0
20260903213330 15 202 19.3 30.6 0.00 0.00 0.03 8 1008.5
20260903212815 15 225 19.3 27.4 0.00 0.00 0.03 8 1007.4
20260903212300 15 225 17.7 29.0 0.00 0.00 0.03 8 1007.9
20260903211739 15 225 14.5 19.3 0.00 0.00 0.03 9 1008.5
20260903211723 15 225 17.7 29.0 0.00 0.00 0.03 9 1007.9
20260903211208 15 247 17.7 30.6 0.00 0.00 0.03 9 1007.8
20260903210647 15 247 19.3 30.6 0.00 0.00 0.03 9 1008.6
20260903210131 15 247 19.3 32.2 0.00 0.00 0.03 9 1008.2
20260903205610 15 247 12.9 17.7 0.00 0.00 0.03 8 1008.2
20260903205554 15 225 17.7 27.4 0.00 0.00 0.03 8 1008.6
20260903205033 15 225 17.7 27.4 0.00 0.00 0.03 9 1007.6
20260903204518 15 225 17.7 30.6 0.00 0.00 0.03 9 1008.8
20260903204003 15 247 14.5 27.4 0.00 0.00 0.03 9 1008.6
20260903203442 15 270 8.0 11.3 0.00 0.00 0.03 8 1008.5
20260903203424 15 247 12.9 20.9 0.00 0.00 0.03 8 1009.1
20260903202903 15 270 16.1 25.7 0.00 0.00 0.03 9 1008.9
20260903202348 15 270 16.1 27.4 0.00 0.00 0.03 9 1008.8
20260903201827 15 247 11.3 16.1 0.00 0.00 0.03 8 1008.7
20260903201810 15 225 16.1 27.4 0.00 0.00 0.03 8 1008.6
20260903201250 15 270 17.7 29.0 0.00 0.00 0.03 9 1009.1
20260903200734 15 225 19.3 29.0 0.00 0.00 0.03 9 1008.9
20260903200219 15 270 19.3 32.2 0.00 0.00 0.03 9 1009.2
20260903195658 15 247 20.9 29.0 0.00 0.00 0.03 8 1009.0
20260903195642 15 225 16.1 27.4 0.00 0.00 0.03 8 1009.0
20260903195121 15 225 16.1 27.4 0.00 0.00 0.03 8 1008.7
20260903194606 15 247 17.7 30.6 0.00 0.00 0.03 9 1009.0
20260903194051 15 247 20.9 30.6 0.00 0.00 0.03 9 1008.7
20260903193530 15 225 16.1 22.5 0.00 0.00 0.03 8 1009.2
20260903193513 15 225 17.7 27.4 0.00 0.00 0.03 8 1009.2
20260903192952 15 225 19.3 29.0 0.00 0.00 0.03 8 1008.7
20260903192437 15 225 20.9 30.6 0.00 0.00 0.03 8 1008.0
20260903191916 15 225 20.9 30.6 0.00 0.00 0.03 8 1008.7
20260903191859 15 225 19.3 30.6 0.00 0.00 0.03 8 1008.4
20260903191338 15 247 17.7 29.0 0.00 0.00 0.03 8 1008.1
20260903190823 15 225 19.3 32.2 0.00 0.00 0.03 8 1008.6
20260903190308 15 225 17.7 27.4 0.00 0.00 0.03 8 1008.4
20260903185747 15 225 16.1 20.9 0.00 0.00 0.03 8 1008.6
20260903185723 15 225 19.3 25.7 0.00 0.00 0.03 8 1008.2
20260903185208 15 225 16.1 24.1 0.00 0.00 0.03 8 1008.0
20260903184653 15 202 16.1 24.1 0.00 0.00 0.03 7 1007.8
20260903184132 16 247 17.7 24.1 0.00 0.00 0.03 8 1007.3
20260903184115 16 247 14.5 24.1 0.00 0.00 0.03 8 1007.7
20260903183554 16 247 12.9 19.3 0.00 0.00 0.03 7 1007.7
20260903183039 16 270 12.9 22.5 0.00 0.00 0.03 8 1008.0
20260903182524 16 247 12.9 17.7 0.00 0.00 0.03 8 1008.7
20260903182003 16 247 9.7 12.9 0.00 0.00 0.03 8 1008.3
20260903181940 16 270 11.3 25.7 0.00 0.00 0.03 8 1007.8
20260903181425 16 247 12.9 20.9 0.00 0.00 0.03 8 1007.4
20260903180909 16 225 11.3 17.7 0.00 0.00 0.03 7 1007.9
20260903180348 16 247 9.7 12.9 0.00 0.00 0.03 8 1008.6
20260903180332 16 225 11.3 22.5 0.00 0.00 0.03 8 1008.2
20260903175811 16 270 12.9 24.1 0.00 0.00 0.03 8 1008.7
20260903175255 16 247 16.1 29.0 0.00 0.00 0.03 8 1007.8
20260903174740 16 270 17.7 29.0 0.00 0.00 0.03 8 1007.5
20260903174219 16 247 9.7 12.9 0.00 0.00 0.03 8 1008.0
20260903174156 16 270 16.1 27.4 0.00 0.00 0.03 8 1008.0
20260903173641 16 270 17.7 27.4 0.00 0.00 0.03 8 1007.6
20260903173126 16 247 16.1 30.6 0.00 0.00 0.03 8 1007.6
20260903172604 16 270 12.9 20.9 0.00 0.00 0.03 8 1008.0
20260903172540 16 247 19.3 30.6 0.00 0.00 0.03 8 1008.1
20260903172025 16 270 17.7 30.6 0.00 0.00 0.03 8 1008.1
20260903171510 16 270 16.1 25.7 0.00 0.00 0.03 8 1008.6
20260903170949 16 225 20.9 27.4 0.00 0.00 0.03 8 1007.6
20260903170925 16 247 17.7 33.8 0.00 0.00 0.03 8 1007.4
20260903170410 16 270 16.1 30.6 0.00 0.00 0.03 7 1007.9
20260903165855 17 270 16.1 25.7 0.00 0.00 0.03 7 1007.9
20260903165333 17 270 11.3 16.1 0.00 0.00 0.03 7 1008.0
20260903165309 17 292 19.3 30.6 0.00 0.00 0.03 7 1008.0
20260903164754 17 292 20.9 30.6 0.00 0.00 0.03 7 1008.1
20260903164239 17 270 20.9 32.2 0.00 0.00 0.03 7 1007.7
20260903163718 17 270 17.7 24.1 0.00 0.00 0.03 7 1007.7
20260903163654 17 270 16.1 29.0 0.00 0.00 0.03 7 1007.7
20260903163139 17 270 16.1 30.6 0.00 0.00 0.03 7 1007.1
20260903162624 17 270 14.5 27.4 0.00 0.00 0.03 7 1007.2
20260903162101 17 270 9.7 12.9 0.00 0.00 0.03 7 1007.5
20260903162038 17 270 17.7 29.0 0.00 0.00 0.03 7 1007.4
20260903161523 17 292 17.7 29.0 0.00 0.00 0.03 7 1007.0
20260903161008 17 292 19.3 29.0 0.00 0.00 0.03 7 1007.4
20260903160447 17 270 14.5 19.3 0.00 0.00 0.03 7 1008.1
20260903160423 17 270 24.1 33.8 0.00 0.00 0.03 7 1007.6
20260903155908 17 270 20.9 33.8 0.00 0.00 0.03 7 1008.6
20260903155353 17 270 19.3 29.0 0.00 0.00 0.03 7 1008.2
20260903154832 17 292 12.9 16.1 0.00 0.00 0.03 7 1008.1
20260903154808 17 292 17.7 32.2 0.00 0.00 0.03 7 1007.9
20260903154252 17 270 14.5 20.9 0.00 0.00 0.03 7 1008.1
20260903153737 17 270 14.5 29.0 0.00 0.00 0.00 7 1008.2
20260903153216 18 270 12.9 17.7 0.00 0.00 0.00 6 1006.7
20260903153200 18 225 24.1 37.0 0.00 0.00 0.00 6 1006.7
20260903152639 19 270 19.3 33.8 0.00 0.00 0.00 6 1005.2
20260903152124 20 270 14.5 37.0 0.00 0.00 0.00 5 1004.9
20260903151609 20 315 14.5 24.1 0.00 0.00 0.00 5 1005.2
20260903151048 20 270 9.7 12.9 0.00 0.00 0.00 5 1005.1
20260903151025 20 292 19.3 25.7 0.00 0.00 0.00 5 1004.9
20260903150509 20 270 22.5 37.0 0.00 0.00 0.00 5 1004.6
20260903145954 20 292 30.6 45.1 0.00 0.00 0.00 5 1004.4
20260903145433 21 292 24.1 32.2 0.00 0.00 0.00 5 1005.0
20260903145417 21 270 17.7 29.0 0.00 0.00 0.00 5 1004.9
20260903144901 21 270 22.5 37.0 0.00 0.00 0.00 5 1004.3
20260903144346 21 247 17.7 29.0 0.00 0.00 0.00 5 1004.9
20260903143825 21 270 20.9 37.0 0.00 0.00 0.00 5 1004.6
20260903143304 21 225 17.7 24.1 0.00 0.00 0.00 5 1004.8
20260903143248 21 247 25.7 40.2 0.00 0.00 0.00 5 1004.5
20260903142733 21 225 20.9 35.4 0.00 0.00 0.00 5 1004.9
20260903142212 21 247 20.9 32.2 0.00 0.00 0.00 5 1004.2
20260903141657 21 270 9.7 19.3 0.00 0.00 0.00 5 1004.1
20260903141136 21 270 4.8 4.8 0.00 0.00 0.00 5 1004.9
20260903141119 21 270 8.0 12.9 0.00 0.00 0.00 5 1005.4
20260903140558 21 270 14.5 27.4 0.00 0.00 0.00 5 1004.0
20260903140043 21 270 11.3 22.5 0.00 0.00 0.00 5 1004.4
20260903135522 21 270 4.8 6.4 0.00 0.00 0.00 5 1004.5
20260903135503 21 270 9.7 17.7 0.00 0.00 0.00 5 1004.5
20260903134942 21 292 14.5 24.1 0.00 0.00 0.00 5 1004.6
20260903134427 21 270 19.3 32.2 0.00 0.00 0.00 5 1003.8
20260903133906 21 292 12.9 19.3 0.00 0.00 0.00 5 1004.1
20260903133849 21 270 19.3 35.4 0.00 0.00 0.00 5 1003.9
20260903133328 22 270 12.9 20.9 0.00 0.00 0.00 4 1004.6
20260903132813 21 247 14.5 20.9 0.00 0.00 0.00 4 1004.6
20260903132258 21 225 12.9 20.9 0.00 0.00 0.00 4 1005.3
20260903131737 21 270 11.3 14.5 0.00 0.00 0.00 4 1004.8
20260903131714 21 270 12.9 24.1 0.00 0.00 0.00 4 1004.9
20260903131159 21 247 19.3 38.6 0.00 0.00 0.00 5 1004.4
20260903130644 21 225 20.9 33.8 0.00 0.00 0.00 4 1004.6
20260903130123 21 225 16.1 22.5 0.00 0.00 0.00 5 1005.7
20260903130106 21 225 17.7 29.0 0.00 0.00 0.00 5 1004.6
20260903125545 21 270 16.1 29.0 0.00 0.00 0.00 4 1004.9
20260903125030 21 270 16.1 27.4 0.00 0.00 0.00 5 1003.8
20260903124515 21 270 19.3 32.2 0.00 0.00 0.00 4 1004.1
20260903123954 21 225 24.1 29.0 0.00 0.00 0.00 4 1004.5
20260903123938 21 180 20.9 35.4 0.00 0.00 0.00 4 1004.2
20260903123423 21 270 20.9 30.6 0.00 0.00 0.00 4 1003.9
20260903122902 22 292 20.9 33.8 0.00 0.00 0.00 4 1003.2
20260903122347 22 270 24.1 41.8 0.00 0.00 0.00 4 1004.3
20260903121826 22 315 14.5 19.3 0.00 0.00 0.00 4 1003.2
20260903121810 22 270 20.9 41.8 0.00 0.00 0.00 4 1003.1
20260903121249 22 225 17.7 30.6 0.00 0.00 0.00 4 1003.3
20260903120734 22 270 19.3 32.2 0.00 0.00 0.00 4 1005.6
20260903120219 21 247 17.7 35.4 0.00 0.00 0.00 4 1003.9
20260903115658 22 225 9.7 14.5 0.00 0.00 0.00 4 1005.8
20260903115643 22 270 14.5 24.1 0.00 0.00 0.00 4 1005.3
20260903115128 21 247 17.7 24.1 0.00 0.00 0.00 4 1003.5
20260903114607 21 225 14.5 24.1 0.00 0.00 0.00 4 1004.9
20260903114051 20 247 24.1 45.1 0.00 0.00 0.00 5 1003.1
20260903113530 20 270 19.3 24.1 0.00 0.00 0.00 5 1004.1
20260903113514 20 247 24.1 38.6 0.00 0.00 0.00 5 1004.7
20260903112953 20 247 19.3 33.8 0.00 0.00 0.00 5 1003.7
20260903112438 20 225 19.3 29.0 0.00 0.00 0.00 5 1005.0
20260903111923 20 270 17.7 25.7 0.00 0.00 0.00 5 1004.9
20260903111402 20 247 12.9 16.1 0.00 0.00 0.00 5 1004.7
20260903111347 20 270 19.3 29.0 0.00 0.00 0.00 5 1004.8
20260903110826 20 270 19.3 35.4 0.00 0.00 0.00 5 1004.4
20260903110310 20 270 19.3 32.2 0.00 0.00 0.00 5 1004.5
20260903105755 20 247 24.1 43.5 0.00 0.00 0.00 5 1003.0
20260903105234 20 315 24.1 32.2 0.00 0.00 0.00 5 1004.9
20260903105219 20 270 19.3 30.6 0.00 0.00 0.00 5 1004.5
20260903104704 20 247 17.7 30.6 0.00 0.00 0.00 5 1004.6
20260903104143 20 270 19.3 33.8 0.00 0.00 0.00 5 1004.2
20260903103628 20 270 22.5 38.6 0.00 0.00 0.00 5 1003.3
20260903103107 20 247 19.3 24.1 0.00 0.00 0.00 5 1003.1
20260903103051 21 270 24.1 37.0 0.00 0.00 0.00 5 1004.0
20260903102530 21 247 22.5 38.6 0.00 0.00 0.00 5 1004.0
20260903102015 21 247 19.3 43.5 0.00 0.00 0.00 4 1005.3
20260903101500 20 270 19.3 33.8 0.00 0.00 0.00 5 1003.9
20260903100939 20 270 19.3 27.4 0.00 0.00 0.00 5 1002.4
20260903100915 21 270 19.3 33.8 0.00 0.00 0.00 4 1004.3
20260903100400 21 225 19.3 33.8 0.00 0.00 0.00 5 1004.1
20260903095845 21 270 22.5 37.0 0.00 0.00 0.00 5 1003.2
20260903095324 21 292 27.4 35.4 0.00 0.00 0.00 4 1003.9
20260903095307 21 292 19.3 29.0 0.00 0.00 0.00 5 1003.5
20260903094752 21 292 19.3 35.4 0.00 0.00 0.00 5 1002.5
20260903094237 21 270 20.9 33.8 0.00 0.00 0.00 4 1004.0
20260903093716 20 270 19.3 30.6 0.00 0.00 0.00 5 1002.5
20260903093155 21 247 12.9 16.1 0.00 0.00 0.00 5 1004.2
20260903093138 21 270 16.1 35.4 0.00 0.00 0.00 5 1004.5
20260903092623 20 180 14.5 22.5 0.00 0.00 0.00 5 1006.6
20260903092102 20 270 19.3 35.4 0.00 0.00 0.00 5 1002.4
20260903091540 20 270 9.7 14.5 0.00 0.00 0.00 5 1004.5
20260903091522 20 270 12.9 27.4 0.00 0.00 0.00 5 1004.3
20260903091007 20 247 11.3 27.4 0.00 0.00 0.00 5 1005.3
20260903090446 20 292 16.1 25.7 0.00 0.00 0.00 5 1002.7
20260903085925 20 270 9.7 14.5 0.00 0.00 0.00 5 1004.4
20260903085908 19 270 14.5 24.1 0.00 0.00 0.00 5 1004.2
20260903085353 19 270 11.3 22.5 0.00 0.00 0.00 5 1002.5
20260903084832 18 225 14.5 24.1 0.00 0.00 0.00 5 1002.0
20260903084317 18 225 12.9 17.7 0.00 0.00 0.00 5 1006.2
20260903083756 18 270 14.5 17.7 0.00 0.00 0.00 6 1002.2
20260903083739 18 270 14.5 22.5 0.00 0.00 0.00 5 1002.8
20260903083218 18 225 11.3 20.9 0.00 0.00 0.00 5 1004.6
20260903082703 17 225 12.9 19.3 0.00 0.00 0.00 6 1005.6
20260903082142 17 225 8.0 11.3 0.00 0.00 0.00 6 1005.6
20260903082125 17 225 12.9 20.9 0.00 0.00 0.00 6 1005.7
20260903081604 18 247 11.3 17.7 0.00 0.00 0.00 6 1003.1
20260903081049 18 292 8.0 14.5 0.00 0.00 0.00 6 1003.4
20260903080534 18 225 6.4 12.9 0.00 0.00 0.00 6 1006.7
20260903080013 18 225 0.0 0.0 0.00 0.00 0.00 6 1006.4
20260903075957 18 247 9.7 20.9 0.00 0.00 0.00 6 1005.7
20260903075436 18 270 11.3 19.3 0.00 0.00 0.00 6 1005.5
20260903074921 18 225 11.3 22.5 0.00 0.00 0.00 6 1005.3
20260903074406 17 225 16.1 25.7 0.00 0.00 0.00 6 1003.1
20260903073845 17 180 11.3 14.5 0.00 0.00 0.00 6 1006.6
20260903073829 17 225 11.3 17.7 0.00 0.00 0.00 6 1006.6
20260903073314 17 180 11.3 20.9 0.00 0.00 0.00 6 1007.1
20260903072753 17 247 11.3 19.3 0.00 0.00 0.00 7 1004.0
20260903072238 17 225 8.0 14.5 0.00 0.00 0.00 7 1006.6
20260903071717 17 225 8.0 11.3 0.00 0.00 0.00 7 1005.1
20260903071701 17 247 8.0 17.7 0.00 0.00 0.00 7 1005.7
20260903071140 16 225 9.7 16.1 0.00 0.00 0.00 7 1007.5
20260903070625 16 247 11.3 17.7 0.00 0.00 0.00 8 1006.5
20260903070110 16 270 11.3 17.7 0.00 0.00 0.00 8 1006.9
20260903065549 16 225 11.3 16.1 0.00 0.00 0.00 8 1006.7
20260903065533 16 247 12.9 20.9 0.00 0.00 0.00 7 1007.1
20260903065012 15 225 11.3 19.3 0.00 0.00 0.00 8 1006.9
20260903064457 15 247 12.9 20.9 0.00 0.00 0.00 8 1006.8
20260903063942 15 247 12.9 17.7 0.00 0.00 0.00 8 1008.5
20260903063421 15 247 14.5 19.3 0.00 0.00 0.00 8 1006.9
20260903063405 15 270 12.9 19.3 0.00 0.00 0.00 8 1006.6
20260903062844 15 247 11.3 16.1 0.00 0.00 0.00 8 1007.8
20260903062329 15 247 11.3 17.7 0.00 0.00 0.00 8 1008.0
20260903061814 15 225 9.7 16.1 0.00 0.00 0.00 8 1008.4
20260903061253 15 247 8.0 9.7 0.00 0.00 0.00 8 1008.4
20260903061237 15 225 12.9 19.3 0.00 0.00 0.00 8 1008.9
20260903060716 14 225 11.3 17.7 0.00 0.00 0.00 8 1010.1
20260903060200 14 270 11.3 17.7 0.00 0.00 0.00 9 1008.3
20260903055645 14 247 11.3 17.7 0.00 0.00 0.00 9 1008.4
20260903055124 14 270 8.0 11.3 0.00 0.00 0.00 9 1007.5
20260903055108 14 247 11.3 17.7 0.00 0.00 0.00 9 1007.4
20260903054547 13 270 11.3 17.7 0.00 0.00 0.00 9 1008.3
20260903054032 13 247 12.9 20.9 0.00 0.00 0.00 9 1009.4
20260903053517 13 247 11.3 16.1 0.00 0.00 0.00 9 1009.2
20260903052956 13 225 6.4 8.0 0.00 0.00 0.00 9 1010.0
20260903052933 13 225 8.0 14.5 0.00 0.00 0.00 9 1009.6
20260903052418 13 270 9.7 17.7 0.00 0.00 0.00 9 1008.5
20260903051903 13 270 12.9 17.7 0.00 0.00 0.00 9 1009.1
20260903051342 13 225 9.7 12.9 0.00 0.00 0.00 9 1009.3
20260903051317 13 270 14.5 19.3 0.00 0.00 0.00 9 1009.0
20260903050802 13 270 14.5 19.3 0.00 0.00 0.00 9 1009.0
20260903050247 13 247 12.9 16.1 0.00 0.00 0.00 9 1008.8
20260903045726 13 247 11.3 14.5 0.00 0.00 0.00 9 1008.9
20260903045709 13 247 11.3 17.7 0.00 0.00 0.00 9 1009.1
20260903045148 13 270 12.9 16.1 0.00 0.00 0.00 9 1009.1
20260903044633 13 247 12.9 19.3 0.00 0.00 0.00 9 1009.4
20260903044118 13 247 14.5 19.3 0.00 0.00 0.00 9 1009.6
20260903043557 13 225 11.3 14.5 0.00 0.00 0.00 9 1010.1
20260903043541 13 247 12.9 17.7 0.00 0.00 0.00 9 1010.1
20260903043026 13 247 12.9 16.1 0.00 0.00 0.00 9 1009.9
20260903042511 13 247 12.9 17.7 0.00 0.00 0.00 9 1010.3
20260903041950 13 247 14.5 17.7 0.00 0.00 0.00 9 1010.5
20260903041429 13 270 12.9 17.7 0.00 0.00 0.00 9 1010.7
20260903041413 13 270 14.5 19.3 0.00 0.00 0.00 9 1010.9
20260903040858 13 247 14.5 19.3 0.00 0.00 0.00 9 1010.6
20260903040337 13 247 14.5 19.3 0.00 0.00 0.00 9 1011.0
20260903035822 13 247 12.9 19.3 0.00 0.00 0.00 9 1010.8
20260903035301 13 247 11.3 14.5 0.00 0.00 0.00 10 1010.8
20260903035245 13 270 12.9 17.7 0.00 0.00 0.00 10 1010.8
20260903034724 13 270 12.9 16.1 0.00 0.00 0.00 9 1010.5
20260903034209 13 247 12.9 17.7 0.00 0.00 0.00 9 1010.4
20260903033654 13 247 11.3 17.7 0.00 0.00 0.00 9 1010.4
20260903033133 13 270 9.7 12.9 0.00 0.00 0.00 9 1010.4
20260903033117 13 270 11.3 16.1 0.00 0.00 0.00 9 1010.4
20260903032556 13 270 11.3 17.7 0.00 0.00 0.00 9 1010.0
20260903032041 13 270 11.3 17.7 0.00 0.00 0.00 9 1010.4
20260903031526 13 247 11.3 17.7 0.00 0.00 0.00 9 1010.4
20260903031005 13 270 8.0 11.3 0.00 0.00 0.00 9 1010.2
20260903030948 13 270 11.3 16.1 0.00 0.00 0.00 9 1010.0
20260903030433 13 247 11.3 16.1 0.00 0.00 0.00 9 1010.2
20260903025912 13 270 11.3 17.7 0.00 0.00 0.00 9 1009.9
20260903025350 13 247 6.4 9.7 0.00 0.00 0.00 9 1010.0
20260903025334 13 247 9.7 14.5 0.00 0.00 0.00 9 1010.1
20260903024819 13 270 11.3 16.1 0.00 0.00 0.00 9 1009.6
20260903024258 13 270 9.7 14.5 0.00 0.00 0.00 9 1009.7
20260903023743 13 247 9.7 16.1 0.00 0.00 0.00 9 1009.9
20260903023222 13 270 4.8 4.8 0.00 0.00 0.00 9 1009.7
20260903023206 13 270 9.7 14.5 0.00 0.00 0.00 9 1009.9
20260903022645 13 270 9.7 14.5 0.00 0.00 0.00 9 1009.0
20260903022130 13 247 11.3 17.7 0.00 0.00 0.00 9 1009.9
20260903021615 13 270 9.7 16.1 0.00 0.00 0.00 9 1009.8
20260903021054 13 270 11.3 14.5 0.00 0.00 0.00 9 1009.3
20260903021038 13 270 12.9 17.7 0.00 0.00 0.00 9 1009.3
20260903020523 14 270 11.3 17.7 0.00 0.00 0.00 9 1009.1
20260903015447 13 270 9.7 16.1 0.00 0.00 0.00 8 1008.9
20260903014926 13 247 11.3 14.5 0.00 0.00 0.00 9 1008.7
20260903014910 13 225 9.7 16.1 0.00 0.00 0.00 9 1008.7
20260903014355 13 247 8.0 12.9 0.00 0.00 0.00 9 1009.1
20260903013834 13 247 6.4 12.9 0.00 0.00 0.00 8 1008.5